(151772) = 2001 UH218 = 2003 EW25

Discovered at Anderson Mesa on 2003-03-06 by LONEOS.

Orbit

Orbit type: Main Belt

Note: WebGL enabled browser required.

epoch2024-03-31.0
epoch JD2460400.5
perihelion date2023-11-02.29682
perihelion JD2460250.79682
argument of perihelion (°)325.73821
ascending node (°)155.37963
inclination (°)13.89196
eccentricity0.0354941
perihelion distance (AU)2.5274782
Tisserand w.r.t. Jupiter3.4
ΔV w.r.t. Earth (km/sec)10.9
semimajor axis (AU)2.6204900
mean anomaly (°)34.78252
mean daily motion (°/day)0.23234330
aphelion distance (AU)2.714
period (years)4.24
P-vector [x]-0.52366014
P-vector [y]0.82549329
P-vector [z]0.21057276
Q-vector [x]-0.84603512
Q-vector [y]-0.53292242
Q-vector [z]-0.01477391
absolute magnitude15.98
phase slope0.15
uncertainty0
referenceMPEC 2024-E73
observations used623
oppositions17
arc length (days)8166
first opposition used2001
last opposition used2024
residual rms (arc-secs)0.70
perturbers coarse indicatorM-v
perturbers precise indicator003Ek
first observation date used2001-10-26.0
last observation date used2024-03-05.0
computer nameMPCLINUX
JD of orbit computation2456581.586653
perihelion JD uncertainty (days)5.1174E-04
argument of perihelion uncertainty (°)1.1327E-04
ascending node uncertainty (°)1.5305E-05
inclination uncertainty (°)4.4528E-06
eccentricity uncertainty 4.1397E-08
perihelion distance uncertainty (AU)9.6494E-08
Minimum Orbit Intersection Distances (in AU)
for orbit epoch: 2460400.5, reference: E2024-GB3
Mercury2.17615
Venus1.82043
Earth1.54902
Mars0.87909
Jupiter2.29429
Saturn6.57434
Uranus15.8871
Neptune27.2205

Observations

644 total observations over interval: 2001 10 26.34169 – 2024 03 05.218480
These data are available for download (format description).

Date (UT) J2000 RA J2000 Dec Magn Location Ref
2001 10 26.34169 04 05 13.46 -00 11 12.1 20.1 V 291 – LPL/Spacewatch II MPS 57241
2001 10 26.36565 04 05 12.54 -00 11 22.7 19.9 V 691 – Steward Observatory, Kitt Peak-Spacewatch MPS 57241
2001 10 26.36697 04 05 12.53 -00 11 23.2 20.1 V 291 – LPL/Spacewatch II MPS 57241
2001 10 26.38823 04 05 11.71 -00 11 32.9 19.9 V 691 – Steward Observatory, Kitt Peak-Spacewatch MPS 57241
2001 10 26.39177 04 05 11.65 -00 11 34.5 20.0 V 291 – LPL/Spacewatch II MPS 57241
2001 10 26.40966 04 05 10.92 -00 11 42.3 20.0 V 691 – Steward Observatory, Kitt Peak-Spacewatch MPS 57241
2001 10 28.47145 04 03 55.52 -00 26 53.3 19.7   644 – Palomar Mountain/NEAT MPS 57241
2001 10 28.48198 04 03 55.12 -00 26 57.9 20.1   644 – Palomar Mountain/NEAT MPS 57241
2001 10 28.49242 04 03 54.69 -00 27 02.8 19.8   644 – Palomar Mountain/NEAT MPS 57241
2001 12 07.24778 03 31 22.33 -02 56 15.2 20.0   704 – Lincoln Laboratory ETS, New Mexico MPS 81557
2001 12 07.26275 03 31 21.72 -02 56 12.8 19.7   704 – Lincoln Laboratory ETS, New Mexico MPS 81557
2001 12 07.27774 03 31 21.02 -02 56 11.5 20.2   704 – Lincoln Laboratory ETS, New Mexico MPS 81557
2002 01 09.137550 03 19 46.088 -00 33 36.40 20.54 V 645 – Apache Point-Sloan Digital Sky Survey MPS 81557
2002 01 09.141022 03 19 46.093 -00 33 34.95 21.31   645 – Apache Point-Sloan Digital Sky Survey MPS 81557
2002 01 13.151020 03 20 16.416 -00 04 22.22 20.50 V 645 – Apache Point-Sloan Digital Sky Survey MPS 81557
2002 01 13.154492 03 20 16.447 -00 04 20.70 21.41   645 – Apache Point-Sloan Digital Sky Survey MPS 81557
2002 01 14.150580 03 20 27.894 +00 03 10.41 20.52 V 645 – Apache Point-Sloan Digital Sky Survey MPS 81557
2002 01 14.154052 03 20 27.931 +00 03 11.97 21.40   645 – Apache Point-Sloan Digital Sky Survey MPS 81557
2003 02 27.60252 11 58 30.16 +06 19 25.9 20.8   608 – Haleakala-AMOS MPS 81557
2003 02 27.61302 11 58 29.77 +06 19 33.1 20.7   608 – Haleakala-AMOS MPS 81557
2003 02 27.62377 11 58 29.36 +06 19 39.5 20.9   608 – Haleakala-AMOS MPS 81557
2003 03 06.36203 11 54 02.11 +07 34 03.9 19.1 R 699 – Lowell Observatory-LONEOS MPS 74455
2003 03 06.37685 11 54 01.50 +07 34 13.9   699 – Lowell Observatory-LONEOS MPS 74455
2003 03 06.39170 11 54 00.91 +07 34 24.2   699 – Lowell Observatory-LONEOS MPS 74455
2003 03 06.40657 11 54 00.18 +07 34 34.5   699 – Lowell Observatory-LONEOS MPS 74455
2003 03 07.39591 11 53 17.97 +07 45 35.8 18.8 R 699 – Lowell Observatory-LONEOS MPS 74455
2003 03 07.41215 11 53 17.31 +07 45 47.3   699 – Lowell Observatory-LONEOS MPS 74455
2003 03 07.42837 11 53 16.46 +07 45 57.5   699 – Lowell Observatory-LONEOS MPS 74455
2003 03 07.44451 11 53 15.73 +07 46 08.8   699 – Lowell Observatory-LONEOS MPS 74455
2003 03 25.22001 11 39 54.88 +10 54 11.0 19.3   644 – Palomar Mountain/NEAT MPS 76229
2003 03 25.29623 11 39 51.39 +10 54 54.8 19.2   644 – Palomar Mountain/NEAT MPS 76229
2003 03 25.33832 11 39 49.40 +10 55 18.8 19.4   644 – Palomar Mountain/NEAT MPS 76229
2003 03 25.36002 11 39 48.48 +10 55 31.0 19.2   644 – Palomar Mountain/NEAT MPS 76229
2003 03 25.36169 11 39 48.41 +10 55 31.9 19.4   644 – Palomar Mountain/NEAT MPS 76229
2003 03 25.38917 11 39 47.16 +10 55 47.6 19.7   644 – Palomar Mountain/NEAT MPS 76229
2003 03 26.26718 11 39 09.03 +11 04 02.7 19.1 R 699 – Lowell Observatory-LONEOS MPS 76229
2003 03 26.28329 11 39 08.29 +11 04 10.7   699 – Lowell Observatory-LONEOS MPS 76229
2003 03 26.29945 11 39 07.55 +11 04 19.6   699 – Lowell Observatory-LONEOS MPS 76229
2003 03 26.31560 11 39 06.81 +11 04 29.1   699 – Lowell Observatory-LONEOS MPS 76229
2003 03 31.200050 11 35 43.078 +11 47 39.10 19.76 V 645 – Apache Point-Sloan Digital Sky Survey MPS 136999
2003 03 31.203522 11 35 42.936 +11 47 40.81 20.69   645 – Apache Point-Sloan Digital Sky Survey MPS 136999
2005 09 09.416987 02 21 30.734 +00 04 14.81 20.41 V 645 – Apache Point-Sloan Digital Sky Survey MPS 390042
2005 09 09.41735 02 21 30.73 +00 04 14.7 21.5   705 – Apache Point MPS 211691
2005 09 09.41818 02 21 30.73 +00 04 14.4 20.5 V 705 – Apache Point MPS 211691
2005 09 09.420459 02 21 30.719 +00 04 13.09 21.26   645 – Apache Point-Sloan Digital Sky Survey MPS 390042
2005 09 13.379927 02 21 08.329 -00 29 17.10 21.02 V 645 – Apache Point-Sloan Digital Sky Survey MPS 390042
2005 09 13.383399 02 21 08.294 -00 29 18.81 20.87   645 – Apache Point-Sloan Digital Sky Survey MPS 390042
2005 11 05.24620 01 48 27.25 -07 51 29.3 19.1 V 703 – Catalina Sky Survey MPS 149491
2005 11 05.25360 01 48 26.92 -07 51 30.9 19.1 V 703 – Catalina Sky Survey MPS 149491
2005 11 05.26102 01 48 26.60 -07 51 32.5 19.2 V 703 – Catalina Sky Survey MPS 149491
2005 11 05.26848 01 48 26.31 -07 51 34.4 19.2 V 703 – Catalina Sky Survey MPS 149491
2007 01 29.42253 09 59 15.28 +06 34 14.0 19.8 V 691 – Steward Observatory, Kitt Peak-Spacewatch MPS 198089
2007 01 29.44064 09 59 14.53 +06 34 23.3 19.7 V 691 – Steward Observatory, Kitt Peak-Spacewatch MPS 198089
2007 01 29.45849 09 59 13.76 +06 34 32.5 19.9 V 691 – Steward Observatory, Kitt Peak-Spacewatch MPS 198089
2007 02 08.20758 09 51 57.38 +08 05 29.4   691 – Steward Observatory, Kitt Peak-Spacewatch MPS 198682
2007 02 08.21769 09 51 56.88 +08 05 35.5   691 – Steward Observatory, Kitt Peak-Spacewatch MPS 198682
2007 02 08.22781 09 51 56.37 +08 05 41.5   691 – Steward Observatory, Kitt Peak-Spacewatch MPS 198682
2007 02 08.29759 09 51 52.92 +08 06 22.9 19.8 V 703 – Catalina Sky Survey MPS 198682
2007 02 08.30516 09 51 52.52 +08 06 27.6 19.6 V 703 – Catalina Sky Survey MPS 198682
2007 02 08.31275 09 51 52.12 +08 06 33.7 19.7 V 703 – Catalina Sky Survey MPS 198682
2007 02 08.32030 09 51 51.73 +08 06 37.8 18.8 V 703 – Catalina Sky Survey MPS 198682
2007 02 08.35923 09 51 49.89 +08 07 00.5 18.9 R 644 – Palomar Mountain/NEAT MPS 199459
2007 02 08.36042 09 51 49.78 +08 07 00.8 19.5 R 644 – Palomar Mountain/NEAT MPS 199459
2007 02 08.37957 09 51 48.87 +08 07 12.2 18.9 R 644 – Palomar Mountain/NEAT MPS 199459
2007 02 08.38077 09 51 48.79 +08 07 13.2 19.1 R 644 – Palomar Mountain/NEAT MPS 199459
2007 02 08.39998 09 51 47.85 +08 07 24.3 18.8 R 644 – Palomar Mountain/NEAT MPS 199459
2007 02 08.40116 09 51 47.79 +08 07 25.1 18.6 R 644 – Palomar Mountain/NEAT MPS 199459
2007 02 13.15821 09 47 55.68 +08 55 44.0 18.9 V 703 – Catalina Sky Survey MPS 199459
2007 02 13.16097 09 47 55.46 +08 55 44.5 19.1 V 703 – Catalina Sky Survey MPS 199459
2007 02 13.16370 09 47 55.32 +08 55 48.0 18.9 V 703 – Catalina Sky Survey MPS 199459
2007 02 13.16647 09 47 55.17 +08 55 49.4 18.9 V 703 – Catalina Sky Survey MPS 199459
2007 02 13.17851 09 47 54.56 +08 55 57.0 18.8 V 703 – Catalina Sky Survey MPS 199459
2007 02 13.18369 09 47 54.31 +08 55 59.9 19.0 V 703 – Catalina Sky Survey MPS 199459
2007 02 13.18884 09 47 54.06 +08 56 02.9 18.8 V 703 – Catalina Sky Survey MPS 199459
2007 02 13.19407 09 47 53.80 +08 56 06.1 19.2 V 703 – Catalina Sky Survey MPS 199459
2007 02 13.82960 09 47 22.31 +09 02 38.7 18.5 R 185 – Observatoire Astronomique Jurassien-Vicques MPS 199459
2007 02 13.84146 09 47 21.77 +09 02 46.4 18.8 R 185 – Observatoire Astronomique Jurassien-Vicques MPS 199459
2007 02 17.41693 09 44 24.37 +09 40 02.4 19.2 R 644 – Palomar Mountain/NEAT MPS 200345
2007 02 17.43715 09 44 23.35 +09 40 14.8 19.0 R 644 – Palomar Mountain/NEAT MPS 200345
2007 02 17.45864 09 44 22.32 +09 40 28.3 18.9 R 644 – Palomar Mountain/NEAT MPS 200345
2007 02 23.27159 09 39 41.25 +10 41 08.0 19.0   704 – Lincoln Laboratory ETS, New Mexico MPS 201485
2007 02 23.28307 09 39 40.66 +10 41 14.9 19.4   704 – Lincoln Laboratory ETS, New Mexico MPS 201485
2007 02 23.29458 09 39 40.09 +10 41 21.8 19.3   704 – Lincoln Laboratory ETS, New Mexico MPS 201485
2007 02 23.30605 09 39 39.57 +10 41 29.0 19.5   704 – Lincoln Laboratory ETS, New Mexico MPS 201485
2007 02 23.31752 09 39 39.02 +10 41 36.7 19.3   704 – Lincoln Laboratory ETS, New Mexico MPS 201485
2007 02 26.23488 09 37 24.74 +11 11 34.9 19.3 V 703 – Catalina Sky Survey MPS 201485
2007 02 26.24562 09 37 24.24 +11 11 41.0 19.9 V 703 – Catalina Sky Survey MPS 201485
2007 02 26.25634 09 37 23.62 +11 11 47.0 20.1 V 703 – Catalina Sky Survey MPS 201485
2007 02 26.26705 09 37 23.08 +11 11 54.0 19.5 V 703 – Catalina Sky Survey MPS 201485
